Torna al catalogo

STARLINK-34868

AttivoComunicazioniVLEO
NORAD 65648·PAYLOAD·🇺🇸 United States

Lanciato Sep 18, 2025 da Cape Canaveral Space Force Station

Loading…

Prossimi Passaggi (prossime 24 ore)

TLE

AggiornatoSource: CelesTrak SupGP

Epoca: Sep 14, 2026, 21:45 UTC

1 65648C 25210AC  26257.90673611 -.00073245  00000+0 -21637-2 0  2574
2 65648  53.1574 144.0043 0001304  92.8312 135.6361 15.34432067    16

Traccia STARLINK-34868 in tempo reale con AllMySat

Download on the App Store